Weather History for Brunswick, GA

Change the Weather History Date:

Saturday, April 28, 2012

  Actual Average Record
Temperature  
Mean Temperature 74 °F -  
Max Temperature 87 °F 80 °F 99 °F (1986)
Min Temperature 60 °F 58 °F 42 °F (2001)
Cooling Degree Days 8    
Growing Degree Days 24 (Base 50)    
Moisture  
Dew Point 62 °F    
Average Humidity 66    
Maximum Humidity 94    
Minimum Humidity 33    
Precipitation  
Precipitation 0.00 in - - ()
Sea Level Pressure  
Sea Level Pressure 30.09 in    
Wind  
Wind Speed 6 mph (South)    
Max Wind Speed 13 mph    
Max Gust Speed 18 mph    
Visibility 10 miles    
Events      
Averages and records for this station are not official NWS values.
T = Trace of Precipitation, MM = Missing Value Source: NWS Daily Summary

Daily Weather History Graph

Daily Weather History Graph

Search for Another Location

Airport:

Trip Planner

Search our weather history database for the weather conditions in past years. The results will help you decide how hot, cold, wet, or windy it might be!

Date:

Astronomy

Apr. 28, 2012 Rise Set
Actual Time 6:43 AM EDT 8:03 PM EDT
Civil Twilight 6:17 AM EDT 8:29 PM EDT
Nautical Twilight 5:47 AM EDT 8:59 PM EDT
Astronomical Twilight 5:15 AM EDT 9:31 PM EDT
Moon 12:23 PM EDT (4/28) 1:24 AM EDT (4/28)
Length of Visible Light 14h 11m
Length of Day
13h 20m
Waxing Crescent, 42% of the Moon is Illuminated
Apr 28
Waxing Crescent
Apr 29
First Quarter
May 5
Full
May 12
Last Quarter
May 20
New

Hourly Weather History & Observations

Time (EDT) Temp. Heat Index Dew Point Humidity Pressure Visibility Wind Dir Wind Speed Gust Speed Precip Events Conditions
12:15 AM 71.6 °F - 62.6 °F 73% 30.10 in 10.0 mi SSW 6.9 mph - N/A   Clear
12:35 AM 71.6 °F - 62.6 °F 73% 30.10 in 10.0 mi SSW 5.8 mph - N/A   Clear
12:55 AM 71.6 °F - 60.8 °F 69% 30.10 in 10.0 mi SSW 6.9 mph - N/A   Clear
1:15 AM 71.6 °F - 60.8 °F 69% 30.10 in 10.0 mi SSW 5.8 mph - N/A   Clear
1:35 AM 71.6 °F - 60.8 °F 69% 30.09 in 10.0 mi SSW 5.8 mph - N/A   Clear
1:55 AM 69.8 °F - 60.8 °F 73% 30.09 in 10.0 mi SSW 5.8 mph - N/A   Clear
2:15 AM 69.8 °F - 60.8 °F 73% 30.08 in 10.0 mi SSW 5.8 mph - N/A   Clear
2:35 AM 69.8 °F - 60.8 °F 73% 30.07 in 10.0 mi South 6.9 mph - N/A   Clear
2:55 AM 69.8 °F - 60.8 °F 73% 30.07 in 10.0 mi South 6.9 mph - N/A   Clear
3:15 AM 69.8 °F - 60.8 °F 73% 30.07 in 10.0 mi SSW 5.8 mph - N/A   Clear
3:35 AM 69.8 °F - 60.8 °F 73% 30.06 in 10.0 mi South 6.9 mph - N/A   Clear
3:55 AM 68.0 °F - 60.8 °F 78% 30.06 in 10.0 mi SSW 6.9 mph - N/A   Clear
4:15 AM 68.0 °F - 60.8 °F 78% 30.06 in 10.0 mi SSW 6.9 mph - N/A   Clear
4:35 AM 68.0 °F - 60.8 °F 78% 30.06 in 10.0 mi SSW 4.6 mph - N/A   Clear
4:55 AM 64.4 °F - 60.8 °F 88% 30.07 in 10.0 mi Calm Calm - N/A   Clear
5:15 AM 64.4 °F - 60.8 °F 88% 30.07 in 10.0 mi SW 4.6 mph - N/A   Clear
5:35 AM 66.2 °F - 60.8 °F 83% 30.07 in 10.0 mi SW 3.5 mph - N/A   Clear
5:55 AM 64.4 °F - 60.8 °F 88% 30.08 in 10.0 mi Calm Calm - N/A   Clear
6:15 AM 62.6 °F - 60.8 °F 94% 30.09 in 10.0 mi Calm Calm - N/A   Clear
6:35 AM 62.6 °F - 59.0 °F 88% 30.10 in 10.0 mi Calm Calm - N/A   Clear
6:55 AM 60.8 °F - 59.0 °F 94% 30.11 in 10.0 mi Calm Calm - N/A   Clear
7:15 AM 60.8 °F - 59.0 °F 94% 30.12 in 10.0 mi Calm Calm - N/A   Clear
7:35 AM 62.6 °F - 60.8 °F 94% 30.12 in 10.0 mi Calm Calm - N/A   Clear
7:55 AM 64.4 °F - 62.6 °F 94% 30.12 in 10.0 mi Calm Calm - N/A   Clear
8:15 AM 68.0 °F - 62.6 °F 83% 30.13 in 10.0 mi South 3.5 mph - N/A   Clear
8:35 AM 69.8 °F - 62.6 °F 78% 30.13 in 10.0 mi Calm Calm - N/A   Clear
8:55 AM 69.8 °F - 62.6 °F 78% 30.13 in 10.0 mi WSW 3.5 mph - N/A   Clear
9:15 AM 71.6 °F - 64.4 °F 78% 30.13 in 10.0 mi West 3.5 mph - N/A   Clear
9:35 AM 73.4 °F - 64.4 °F 73% 30.13 in 10.0 mi Calm Calm - N/A   Clear
9:55 AM 73.4 °F - 64.4 °F 73% 30.13 in 10.0 mi Calm Calm - N/A   Clear
10:15 AM 77.0 °F - 64.4 °F 65% 30.13 in 10.0 mi Calm Calm - N/A   Clear
10:35 AM 78.8 °F - 62.6 °F 57% 30.13 in 10.0 mi Calm Calm - N/A   Clear
10:55 AM 80.6 °F 81.5 °F 60.8 °F 51% 30.13 in 10.0 mi West 3.5 mph - N/A   Clear
11:15 AM 80.6 °F 81.8 °F 62.6 °F 54% 30.14 in 10.0 mi Calm Calm - N/A   Clear
11:35 AM 82.4 °F 82.9 °F 60.8 °F 48% 30.13 in 10.0 mi SW 4.6 mph - N/A   Clear
11:55 AM 84.2 °F 83.5 °F 57.2 °F 40% 30.13 in 10.0 mi Calm Calm - N/A   Clear
12:15 PM 86.0 °F 85.4 °F 59.0 °F 40% 30.13 in 10.0 mi WSW 6.9 mph - N/A   Clear
12:35 PM 86.0 °F 84.2 °F 53.6 °F 33% 30.12 in 10.0 mi WSW 5.8 mph - N/A   Clear
12:55 PM 86.0 °F 84.5 °F 55.4 °F 35% 30.11 in 10.0 mi Calm Calm - N/A   Clear
1:15 PM 86.0 °F 86.1 °F 60.8 °F 43% 30.11 in 10.0 mi SSE 6.9 mph - N/A   Clear
1:35 PM 87.8 °F 87.1 °F 59.0 °F 38% 30.11 in 10.0 mi SSE 10.4 mph - N/A   Clear
1:55 PM 87.8 °F 87.6 °F 60.8 °F 40% 30.10 in 10.0 mi South 8.1 mph - N/A   Clear
2:15 PM 87.8 °F 86.1 °F 55.4 °F 33% 30.09 in 10.0 mi SSW 6.9 mph - N/A   Clear
2:35 PM 87.8 °F 86.1 °F 55.4 °F 33% 30.08 in 10.0 mi SSE 9.2 mph - N/A   Clear
2:55 PM 87.8 °F 87.1 °F 59.0 °F 38% 30.08 in 10.0 mi SE 12.7 mph 17.3 mph N/A   Clear
3:15 PM 87.8 °F 86.5 °F 57.2 °F 35% 30.07 in 10.0 mi SE 10.4 mph 16.1 mph N/A   Clear
3:35 PM 87.8 °F 86.1 °F 55.4 °F 33% 30.06 in 10.0 mi SE 11.5 mph - N/A   Clear
3:55 PM 87.8 °F 87.1 °F 59.0 °F 38% 30.06 in 10.0 mi ESE 12.7 mph 16.1 mph N/A   Clear
4:15 PM 87.8 °F 86.1 °F 55.4 °F 33% 30.05 in 10.0 mi SSE 10.4 mph - N/A   Clear
4:35 PM 86.0 °F 84.9 °F 57.2 °F 37% 30.05 in 10.0 mi ESE 12.7 mph - N/A   Clear
4:55 PM 86.0 °F 86.1 °F 60.8 °F 43% 30.05 in 10.0 mi SE 10.4 mph - N/A   Clear
5:15 PM 84.2 °F 84.4 °F 60.8 °F 45% 30.05 in 10.0 mi ESE 12.7 mph 18.4 mph N/A   Clear
5:35 PM 82.4 °F 82.9 °F 60.8 °F 48% 30.06 in 10.0 mi SSE 10.4 mph - N/A   Clear
5:55 PM 82.4 °F 82.0 °F 57.2 °F 42% 30.06 in 10.0 mi SSE 9.2 mph - N/A   Clear
6:15 PM 82.4 °F 82.5 °F 59.0 °F 45% 30.06 in 10.0 mi SSE 11.5 mph - N/A   Clear
6:35 PM 80.6 °F 81.8 °F 62.6 °F 54% 30.07 in 10.0 mi SE 10.4 mph - N/A   Clear
6:55 PM 78.8 °F - 64.4 °F 61% 30.07 in 10.0 mi SE 8.1 mph - N/A   Clear
7:15 PM 78.8 °F - 64.4 °F 61% 30.07 in 10.0 mi SSE 8.1 mph - N/A   Clear
7:35 PM 77.0 °F - 64.4 °F 65% 30.08 in 10.0 mi SSE 5.8 mph - N/A   Clear
7:55 PM 75.2 °F - 68.0 °F 78% 30.08 in 10.0 mi SSE 11.5 mph - N/A   Clear
8:15 PM 73.4 °F - 68.0 °F 83% 30.08 in 10.0 mi SSE 10.4 mph 16.1 mph N/A   Clear
8:35 PM 73.4 °F - 68.0 °F 83% 30.09 in 10.0 mi SE 9.2 mph - N/A   Clear
8:55 PM 73.4 °F - 68.0 °F 83% 30.10 in 10.0 mi SSE 6.9 mph - N/A   Clear
9:15 PM 73.4 °F - 68.0 °F 83% 30.10 in 10.0 mi SSE 6.9 mph - N/A   Clear
9:35 PM 73.4 °F - 66.2 °F 78% 30.11 in 10.0 mi SSE 8.1 mph - N/A   Clear
9:55 PM 73.4 °F - 66.2 °F 78% 30.11 in 10.0 mi SSE 6.9 mph - N/A   Clear
10:15 PM 71.6 °F - 68.0 °F 88% 30.11 in 10.0 mi SSE 5.8 mph - N/A   Clear
10:35 PM 71.6 °F - 68.0 °F 88% 30.12 in 10.0 mi SSE 4.6 mph - N/A   Clear
10:55 PM 71.6 °F - 68.0 °F 88% 30.12 in 10.0 mi South 5.8 mph - N/A   Clear
11:15 PM 71.6 °F - 66.2 °F 83% 30.12 in 10.0 mi South 6.9 mph - N/A   Clear
11:35 PM 71.6 °F - 66.2 °F 83% 30.12 in 10.0 mi South 8.1 mph - N/A   Clear
11:55 PM 71.6 °F - 68.0 °F 88% 30.11 in 10.0 mi South 6.9 mph - N/A   Clear